EW2804 Weather Reports


time (UTC)temp
F
wind
direction
speed
knots
gust
knots
rain 1hr
in
rain 24hr
in
rain mn
in
humidity
%
barometer
mb
20260510222008 66 22 1.7 7.0 0.00 0.37 0.37 84 1015.8
20260510215750 66 39 0.9 9.6 0.00 0.37 0.37 85 1015.1
20260510213647 66 44 2.6 11.3 0.00 0.37 0.37 84 1015.7
20260510212655 67 5 3.5 10.4 0.00 0.37 0.37 83 1016.0
20260510211708 67 57 2.6 13.0 0.00 0.37 0.37 83 1016.4
20260510210657 67 23 2.6 13.0 0.00 0.37 0.37 84 1016.3
20260510205658 67 5 2.6 10.4 0.00 0.37 0.37 84 1016.2
20260510204705 67 332 2.6 10.4 0.00 0.37 0.37 83 1016.4
20260510203706 67 48 2.6 8.7 0.00 0.37 0.37 82 1016.7
20260510202728 68 40 2.6 8.7 0.00 0.36 0.36 82 1016.7
20260510195507 69 31 2.6 7.8 0.00 0.36 0.36 79 1015.9
20260510193318 69 31 0.9 9.6 0.00 0.36 0.36 79 1016.1
20260510192245 70 39 2.6 9.6 0.00 0.36 0.36 78 1015.9
20260510191221 70 11 1.7 5.2 0.00 0.36 0.36 77 1016.1
20260510185146 71 15 1.7 6.1 0.00 0.36 0.36 74 1015.5
20260510184140 71 67 0.9 6.1 0.00 0.36 0.36 74 1015.2
20260510183154 71 140 0.9 4.3 0.00 0.36 0.36 75 1015.0
20260510182149 72 121 0.9 6.1 0.00 0.36 0.36 76 1014.8
20260510181119 71 17 0.9 5.2 0.00 0.36 0.36 79 1014.7
20260510180118 70 148 2.6 6.1 0.00 0.36 0.36 81 1014.6
20260510175112 69 161 1.7 7.8 0.00 0.36 0.36 85 1014.7
20260510174036 68 15 2.6 9.6 0.00 0.36 0.36 86 1014.8
20260510173020 67 71 1.7 7.0 0.00 0.36 0.36 87 1014.9
20260510172020 67 0 0.9 9.6 0.00 0.36 0.36 88 1014.9
20260510171034 65 36 1.7 9.6 0.04 0.36 0.36 86 1015.0
20260510170015 65 44 1.7 7.0 0.10 0.36 0.36 86 1015.3
20260510164949 64 82 2.6 8.7 0.08 0.33 0.35 85 1015.3
20260510164009 64 15 3.5 16.5 0.86 0.29 0.32 83 1015.8
20260510163029 66 34 7.0 17.4 5.01 0.02 0.07 79 1015.2
20260510162007 68 338 7.0 17.4 0.00 0.02 0.02 72 1015.8
20260510154709 77 239 1.7 7.8 0.00 0.02 0.02 63 1013.0
20260510153710 78 217 2.6 8.7 0.00 0.02 0.02 63 1012.2
20260510152713 77 126 3.5 10.4 0.00 0.02 0.02 62 1011.4
20260510151707 76 159 2.6 10.4 0.00 0.01 0.01 62 1011.3
20260510150727 75 153 2.6 7.0 0.00 0.01 0.01 63 1011.5
20260510145716 74 180 2.6 10.4 0.00 0.01 0.01 65 1011.4
20260510144727 73 140 1.7 10.4 0.00 0.01 0.01 67 1011.6
20260510143727 73 161 2.6 8.7 0.00 0.01 0.01 68 1011.6
20260510142721 73 132 1.7 8.7 0.00 0.01 0.01 67 1011.8
20260510141744 72 188 1.7 6.1 0.00 0.01 0.01 69 1011.9
20260510140804 72 199 1.7 8.7 0.00 0.01 0.01 70 1012.1
20260510135757 71 143 2.6 8.7 0.00 0.01 0.01 71 1012.3
20260510134740 70 132 1.7 6.1 0.00 0.01 0.01 73 1012.4
20260510132607 69 130 0.9 5.2 0.00 0.01 0.01 75 1012.6
20260510130414 69 149 0.0 4.3 0.00 0.01 0.01 76 1012.9
20260510125346 69 136 0.9 3.5 0.00 0.01 0.01 77 1012.5
20260510124334 69 142 0.9 5.2 0.00 0.01 0.01 77 1012.5
20260510123337 68 128 0.9 7.8 0.00 0.01 0.01 77 1012.3
20260510122306 68 132 0.9 7.8 0.00 0.01 0.01 77 1012.1
20260510121226 67 128 0.0 2.6 0.00 0.01 0.01 78 1012.1
20260510120155 67 201 0.0 3.5 0.00 0.01 0.01 78 1012.1
20260510115136 67 129 0.9 3.5 0.00 0.01 0.01 78 1011.9
20260510114138 67 126 0.9 3.5 0.00 0.01 0.01 78 1011.7
20260510113152 67 129 0.0 4.3 0.00 0.01 0.01 77 1011.5
20260510112139 67 120 0.9 4.3 0.00 0.01 0.01 78 1011.6
20260510110000 67 155 0.0 3.5 0.00 0.01 0.01 79 1011.6
20260510104931 66 34 0.0 3.5 0.00 0.01 0.01 79 1011.6
20260510103902 66 0 0.0 6.1 0.00 0.01 0.01 79 1011.6
20260510102828 66 130 0.9 7.8 0.00 0.01 0.01 79 1011.4
20260510100656 66 112 0.9 7.0 0.00 0.01 0.01 81 1011.3
20260510095627 66 90 0.9 7.0 0.00 0.01 0.01 82 1011.4
20260510094616 66 44 0.9 6.1 0.00 0.01 0.01 82 1011.4
20260510093616 66 49 2.6 7.8 0.00 0.01 0.01 82 1011.5
20260510092539 67 36 0.9 7.0 0.00 0.01 0.01 80 1011.3
20260510091505 68 15 1.7 8.7 0.00 0.01 0.01 77 1011.1
20260510090524 70 42 1.7 12.2 0.00 0.01 0.01 75 1010.4
20260510085540 72 342 2.6 12.2 0.00 0.00 0.00 73 1010.3
20260510083403 73 67 2.6 8.7 0.00 0.00 0.00 71 1010.4
20260510082344 74 347 2.6 8.7 0.00 0.00 0.00 75 1010.2
20260510081355 74 41 0.9 7.0 0.00 0.00 0.00 77 1010.3
20260510075247 75 342 1.7 8.7 0.00 0.00 0.00 78 1010.5
20260510073108 75 111 0.0 0.0 0.00 0.00 0.00 76 1008.8
20260510070940 76 123 0.0 0.0 0.00 0.00 0.00 73 1008.4
20260510065954 76 123 0.0 2.6 0.00 0.00 0.00 72 1008.1
20260510065003 76 111 0.0 2.6 0.00 0.00 0.00 71 1008.2
20260510064009 76 105 0.9 2.6 0.00 0.00 0.00 70 1007.9
20260510063028 77 190 0.9 6.1 0.00 0.00 0.00 69 1007.7
20260510061958 77 173 2.6 12.2 0.00 0.00 0.00 68 1008.0
20260510055913 76 113 3.5 10.4 0.00 0.00 0.00 69 1010.4
20260510054850 76 42 3.5 10.4 0.00 0.00 0.00 69 1010.3
20260510053824 76 355 2.6 7.8 0.00 0.00 0.00 67 1009.8
20260510052830 76 51 0.0 3.5 0.00 0.00 0.00 68 1007.8
20260510051817 76 238 0.0 3.5 0.00 0.00 0.00 67 1007.0
20260510050825 76 119 0.0 0.0 0.00 0.00 0.00 66 1006.9
20260510044656 77 150 0.0 3.5 0.00 0.00 0.00 65 1006.8
20260510043641 77 64 0.9 5.2 0.00 0.00 0.00 65 1006.5
20260510042621 77 86 0.0 5.2 0.00 0.00 0.00 65 1006.3
20260510041625 77 119 0.0 3.5 0.00 0.00 0.00 65 1006.4
20260510040626 77 146 0.9 3.5 0.00 0.00 0.00 65 1006.6
20260510035636 77 157 0.0 2.6 0.00 0.00 0.00 65 1006.6
20260510034630 77 182 0.0 3.5 0.00 0.00 0.00 65 1006.9
20260510032440 76 136 0.0 1.7 0.00 0.00 0.00 66 1006.9
20260510031452 76 106 0.0 1.7 0.00 0.00 0.00 65 1006.8
20260510030417 77 105 0.0 0.0 0.00 0.00 0.00 64 1007.1
20260510025426 77 105 0.0 1.7 0.00 0.00 0.00 63 1007.1
20260510024432 77 103 0.0 0.0 0.00 0.00 0.00 62 1006.9
20260510023408 78 78 0.0 0.0 0.00 0.00 0.00 61 1007.1
20260510022352 78 78 0.0 0.9 0.00 0.00 0.00 60 1006.9
20260510021413 79 78 0.0 0.9 0.00 0.00 0.00 60 1006.8
20260510020413 79 74 0.0 1.7 0.00 0.00 0.00 59 1006.7
20260510015344 80 70 0.0 1.7 0.00 0.00 0.00 58 1006.6
20260510014345 81 95 0.0 2.6 0.00 0.00 0.00 58 1006.4
20260510012233 82 136 0.0 5.2 0.00 0.00 0.00 57 1006.2
20260510010103 83 144 0.9 2.6 0.00 0.00 0.00 57 1005.8
20260510005107 84 92 0.9 6.1 0.00 0.00 0.00 57 1005.8
20260510004032 84 157 1.7 6.1 0.00 0.00 0.00 57 1005.7
20260510003018 85 126 0.9 6.1 0.00 0.00 0.00 56 1005.8
20260509235734 88 169 0.9 4.3 0.00 0.00 0.00 50 1005.7
20260509233551 89 120 0.0 3.5 0.00 0.00 0.00 46 1005.9
20260509232556 89 153 0.9 4.3 0.00 0.00 0.00 44 1005.9
20260509231542 90 142 0.0 3.5 0.00 0.00 0.00 42 1006.0
20260509230544 89 146 0.9 1.7 0.00 0.00 0.00 42 1005.9
20260509225606 89 190 0.9 4.3 0.00 0.00 0.00 41 1006.0
20260509223456 89 27 0.9 5.2 0.00 0.00 0.00 42 1006.0